DELTA 1 DEB, 7036

Orbit data source: Space-Track

DELTA 1 DEB, 7036 is space debris in SSO originally from a launch on Tue, 06 Nov 1973 UTC launched from the Air Force Western Test Range (AFWTR). Debris objects in space refer to the collection of defunct objects orbiting the Earth. Examples of debris include non-operational satellites, rocket bodies, and fragments generated from explosions, collisions, or faulty payload assembly.

Loading next visibility...
DELTA 1 DEB details
Identifier
7036, 1973-086AC
Orbit
SSO
Last TLE update1 day ago
Origin
Flag of USGSFC (US)
ManufacturerUnknown
MissionSpacecraft
Bus & MotorUnknown
MassUnknown
Launch date (UTC)
1973-11-06 (51 years ago)
Launch vehicleUnknown
Launch site
Air Force Western Test Range (AFWTR)
Object type
Payload
Rocket body
Debris
Shape & HBRUnknown
Radar Cross SectionMedium (>0.1 m² and <1 m²)

Expand to show TLE details & history

TLE from 1 day ago
0 DELTA 1 DEB
1 07036U 73086AC  24360.49879465  .00001257  00000-0  80240-2 0  9998
2 07036 101.5472 335.4845 0042140 192.0168 287.9623 12.54577029329551
Epoch: 2024-12-25T11:58Z
Definitive object data (Epoch: 2024-12-25T11:58:15.857Z)
Latitude58.58604°
Longitude-99.12934°
Altitude1,445.082 km
Speed7.149 km/s
True Right ascension11h 39m 42s
True Declination58° 26' 47"
Sunlit
Object was in daylight at TLE epoch
Visualization TLE readout
Latitude-54.01259°
Longitude-133.87317°
Altitude1,442.919 km
Speed7.15 km/s
Apparent Right ascension03h 33m 26s
Apparent Declination-79° 22' 04"
Sunlit
Object is in daylight
Visualization observer readout
Local Sidereal Time10:54:18
Azimuth193.651° SSW
Elevation-42.809°
Doppler factor1
Orbital elements
Apogee altitude1,475.896 km
Perigee altitude1,409.98 km
Semi-major axis7,821.075 km
Eccentricity0.004214
Inclination101.5472°
RAAN335.4845°
Arg. of periapsis192.0168°
True anomaly287.5022°
Mean anomaly287.9623°
Eccentric anomaly287.73233°
Mean motion3.13793 °/min
BSTAR0.008024
Orbital period114.73 mins
Loading maneuver chart data...
Loading historical data...
Loading historical data...
Loading historical data...
Loading historical data...
Loading historical data...
Loading historical data...
Loading historical data...

DELTA 1 DEB Visibility forecast

Observer location: undefined°, undefined

Span
Click to sort rows by Start time (UTC) header in descending order
Start Az.
Max El. time (UTC)
Max El. Az.
Max El.
End time (UTC)
End Az.
13 mins2024-12-26 12:48:56.264Z359.154° N2024-12-26 12:55:56.264Z293.453° NW29.916°2024-12-26 13:01:56.264Z241.399° WSW
6 mins2024-12-26 20:06:56.264Z67.05° ENE2024-12-26 20:08:56.264Z51.588° ENE14.731°2024-12-26 20:12:56.264Z21.065° NNE
14 mins2024-12-26 21:53:56.264Z145.171° SSE2024-12-26 22:00:56.264Z53.324° ENE42.474°2024-12-26 22:07:56.264Z349.269° N
11 mins2024-12-26 23:48:56.264Z221.539° SW2024-12-26 23:53:56.264Z267.115° W24.111°2024-12-26 23:59:56.264Z316.643° NNW
10 mins2024-12-27 09:56:56.264Z54.073° ENE2024-12-27 10:01:56.264Z96.624° ESE19.395°2024-12-27 10:06:56.264Z136.286° SSE
|